Location: Bord�res
(43.2000°N, 0.2167°W)
Time: 13:19:55
(UTC+00:00)

CZ-4B R/B - Pass Details

Date: 03 March 2021
Orbit: 388 x 454 km, 97.6° (Epoch: 14 April)

Event Time Altitude Azimuth Distance (km) Brightness Sun altitude
Rises 18:40:23 0° 4° (N) 2,292 5.0 -9.5°
Reaches altitude 10° 18:42:26 10° 355° (N) 1,435 4.0 -9.9°
Maximum altitude 18:45:14 35° 288° (WNW) 665 3.0 -10.4°
Drops below altitude 10° 18:48:04 10° 220° (SW) 1,441 4.5 -10.9°
Sets 18:50:08 0° 211° (SSW) 2,303 5.4 -11.3°
